Regional Weather Roundup
Issued by NWS Cleveland, OH

Home | Current Version | Previous Version | Graphics & Text | Print | Product List | Glossary On
Versions: 1 2 3 4 5 6 7 8 9 10 11 12 13 14 15 16 17 18 19 20 21 22 23 24 25 26 27 28 29 30 31 32 33 34 35 36 37 38 39 40 41 42 43 44 45 46 47 48 49 50
000
ASUS41 KCLE 281210
RWRCLE
OHIO REGIONAL WEATHER ROUNDUP
NATIONAL WEATHER SERVICE CLEVELAND, OH
800 AM EDT WED JUN 28 2017

NOTE: "FAIR" INDICATES FEW OR NO CLOUDS BELOW 12,000 FEET WITH NO
SIGNIFICANT WEATHER AND/OR OBSTRUCTIONS TO VISIBILITY.

OHZ001>008-015>018-024>027-034-035-043-044-281300-
   NORTHWEST OHIO

CITY           SKY/WX    TMP DP  RH WIND       PRES   REMARKS
DEFIANCE       SUNNY     57  51  80 S5        30.13R
FINDLAY        SUNNY     60  51  72 S6        30.13S
TOLEDO EXPRESS SUNNY     57  54  89 CALM      30.12S
TOLEDO EXEC    SUNNY     59  52  77 SW7       30.14R
LIMA           SUNNY     59  49  69 S7        30.15R
$$

OHZ009>014-019>023-028>033-038-089-281300-
   NORTHEAST OHIO

CITY           SKY/WX    TMP DP  RH WIND       PRES   REMARKS
CLE-HOPKINS    SUNNY     62  49  62 SW8       30.16R
CLE-LAKEFRONT  SUNNY     63  47  55 SW9       30.13R
CUY CO. ARPT   SUNNY     63  46  55 SW9       30.14R
LORAIN-ELYRIA  SUNNY     59  46  62 W8        30.16R
ASHTABULA      SUNNY     58  50  75 SW3       30.14R
AKRON-CANTON   MOSUNNY   59  48  67 SW6       30.16R
WOOSTER        SUNNY     58  48  69 SW6       30.18R
MANSFIELD      SUNNY     60  48  64 SW5       30.17R
YOUNGSTOWN     MOSUNNY   58  47  66 SW7       30.15R
$$

OHZ042-051>053-060>062-070>072-077>081-281300-
  SOUTHWEST OHIO

CITY           SKY/WX    TMP DP  RH WIND       PRES   REMARKS
CINC-COVINGTON PTSUNNY   63  52  67 CALM      30.16S
CINC-LUNKEN    MOSUNNY   55  55 100 CALM      30.17R
HAMILTON       SUNNY     59  55  87 CALM      30.17S
DAYTON         MOSUNNY   60  53  77 S5        30.17R
WRIGHT-PAT AFB MOSUNNY   59  52  78 CALM      30.16S
DAYTON GENERAL SUNNY     60  53  77 S5        30.16R
WILMINGTON     SUNNY     61  55  81 CALM      30.17R
$$

OHZ036-037-039>041-045>050-054>059-063>069-073>076-082>088-281300-
  CENTRAL AND SOUTHEAST OHIO

CITY           SKY/WX    TMP DP  RH WIND       PRES   REMARKS
COLUMBUS       SUNNY     59  52  77 S3        30.17R
OSU AIRPORT    SUNNY     59  55  87 CALM      30.18R
BOLTON FIELD   SUNNY     57  54  88 CALM      30.18R
RICKENBACK AFB SUNNY     56  53  88 CALM      30.17R
NEWARK         SUNNY     55  51  86 CALM      30.18R
MARION         SUNNY     59  50  72 SW6       30.18R
LANCASTER      SUNNY     55  52  89 SE3       30.18R
ZANESVILLE     SUNNY     54  50  86 CALM      30.18R
NEW PHILLY     NOT AVBL
$$



USA.gov is the U.S. government's official web portal to all federal, state and local government web resources and services.